Location: Val-d'Or
(48.1170°N, 77.7670°W)
Time: 23:20:49
(UTC-04:00)

ISS - Visible Passes

Search period start: 18 September 2020 00:00
Search period end: 28 September 2020 00:00
Orbit: 419 x 420 km, 51.6° (Epoch: 19 September)

Date Brightness Start Highest point End Pass type
(mag) Time Alt. Az. Time Alt. Az. Time Alt. Az.
18 Sep -2.6 20:15:54 10° SSW 20:18:44 26° SE 20:20:14 19° ESE visible
18 Sep -1.4 21:51:58 10° WSW 21:53:13 21° WSW 21:53:13 21° WSW visible
19 Sep -3.9 21:04:34 10° WSW 21:07:57 82° SSE 21:08:05 78° ESE visible
20 Sep -3.7 20:17:16 10° SW 20:20:35 58° SSE 20:22:49 19° ENE visible
20 Sep -1.5 21:54:10 10° W 21:55:47 25° WNW 21:55:47 25° WNW visible
21 Sep -3.4 21:06:39 10° W 21:10:00 58° NNW 21:10:22 54° NNE visible
22 Sep -3.6 20:19:10 10° WSW 20:22:32 74° NNW 20:24:51 19° ENE visible
22 Sep -1.2 21:56:23 10° WNW 21:57:49 22° WNW 21:57:49 22° WNW visible
23 Sep -3.8 19:31:43 10° WSW 19:35:06 83° SSE 19:38:29 10° ENE visible
23 Sep -2.9 21:08:51 10° W 21:12:06 45° N 21:12:14 44° N visible
24 Sep -3.0 20:21:18 10° W 20:24:35 49° N 20:26:36 21° ENE visible
24 Sep -0.9 21:58:26 10° WNW 21:59:33 19° WNW 21:59:33 19° WNW visible
25 Sep -3.3 19:33:44 10° W 19:37:04 58° NNW 19:40:24 10° ENE visible
25 Sep -2.8 21:10:56 10° WNW 21:13:53 43° NNW 21:13:53 43° NNW visible
26 Sep -2.9 20:23:24 10° WNW 20:26:40 43° N 20:28:11 25° ENE visible
26 Sep -0.7 22:00:22 10° WNW 22:01:08 16° WNW 22:01:08 16° WNW visible
27 Sep -2.9 19:35:49 10° W 19:39:05 45° N 19:42:21 10° ENE visible
27 Sep -2.7 21:12:53 10° WNW 21:15:25 44° NW 21:15:25 44° NW visible
